Theta_e
318 318 329 336 336 338 344 344 343 345 347 343 343 345 348 348 345 347 338 337 338 340 340 340 340 340 339 338 337 337 337 336 334 333 331 328 324 320 315 316 316 317 319 320 322 323 324 324 323
316 320 326 335 338 340 346 342 342 340 346 345 345 344 347 348 345 342 343 341 340 342 341 341 341 339 339 338 337 336 336 334 333 330 328 326 322 317 315 316 317 319 321 323 324 324 324 323 323
317 320 325 332 335 342 344 342 341 340 342 344 344 344 344 348 347 344 342 343 341 341 341 340 339 339 337 335 334 333 332 329 329 328 327 324 319 315 315 316 317 320 323 324 325 325 324 324 324
326 327 326 332 339 339 340 340 338 339 340 342 343 344 347 345 346 343 340 340 337 337 337 336 336 337 336 334 333 332 331 328 328 328 326 321 316 315 316 316 318 320 324 324 324 324 325 324 324
328 327 332 336 337 338 338 337 336 340 341 343 342 347 348 346 345 344 341 339 340 337 335 334 333 333 333 334 333 328 327 327 327 326 323 317 315 316 316 317 318 319 322 323 323 325 325 325 324
325 324 331 337 337 336 335 335 335 339 343 343 345 346 345 344 345 345 343 343 341 338 338 335 331 331 331 332 331 328 328 327 325 321 317 314 315 316 317 317 317 319 320 322 323 324 325 325 324
322 317 330 335 339 340 338 336 337 339 335 341 343 345 345 345 346 344 343 343 343 342 340 339 338 331 332 333 331 329 326 321 317 314 314 315 316 317 317 318 318 319 321 321 322 324 325 326 326
325 319 336 336 340 339 335 337 336 337 338 339 342 344 343 340 343 342 341 343 343 341 339 337 335 337 334 333 330 328 321 315 314 314 316 318 318 319 319 319 320 321 322 325 322 324 326 327 326
323 321 335 338 341 341 336 340 342 343 342 342 341 341 340 339 340 339 339 339 339 339 338 338 338 338 336 335 332 325 317 315 315 316 317 318 319 319 321 323 327 326 325 328 326 325 326 326 326
322 325 334 336 338 336 338 341 344 343 343 341 338 340 339 338 337 337 336 335 335 336 336 336 336 337 337 336 334 331 323 321 327 328 326 321 321 327 330 329 330 329 330 329 329 327 327 327 327
337 337 342 340 340 339 333 337 341 341 340 339 337 336 337 337 335 335 334 334 334 335 336 334 334 335 334 336 333 331 328 325 326 328 329 330 330 328 331 329 331 330 329 328 329 328 327 328 328
343 343 342 338 338 338 340 338 339 338 337 336 335 335 334 334 334 333 333 331 331 331 331 333 333 332 333 333 332 331 331 330 330 329 329 328 329 329 329 329 330 329 329 328 326 326 326 325 327
338 339 341 341 340 339 338 338 338 336 335 335 335 335 334 335 334 332 332 331 329 328 325 326 327 328 329 329 329 330 328 327 327 326 326 326 327 327 326 324 323 325 327 325 326 327 327 326 326
336 337 339 340 338 337 337 337 336 334 334 333 333 333 333 333 333 331 330 328 326 325 323 322 321 319 320 321 320 321 319 317 319 318 318 318 318 317 318 320 321 322 323 324 324 325 325 325 325
336 334 338 340 338 338 337 338 336 334 332 331 330 329 329 329 329 327 324 323 323 320 318 315 314 314 313 314 317 318 317 317 319 318 319 318 317 314 312 316 316 316 316 317 317 319 322 323 323
331 333 333 330 336 333 334 337 336 332 332 330 329 328 328 326 325 325 324 320 320 319 319 318 318 317 314 313 317 316 316 316 316 317 321 319 316 314 313 312 313 312 314 316 317 318 317 317 316
329 333 333 333 333 331 334 340 334 331 328 330 328 327 325 324 324 322 321 320 320 320 320 319 318 315 314 313 314 313 311 313 315 318 320 315 314 314 312 311 311 311 310 313 316 317 316 317 317
332 334 333 334 332 331 336 335 331 329 331 329 327 326 324 324 323 323 322 322 322 322 321 319 317 316 315 315 314 312 311 312 315 315 314 315 315 315 311 311 310 310 310 312 313 315 315 316 317
332 332 333 332 333 327 327 329 330 329 331 329 328 327 325 325 325 324 323 323 322 322 320 318 317 316 316 315 311 310 310 310 311 313 312 312 312 311 310 310 309 310 309 311 312 313 314 315 315
332 335 334 332 331 331 333 332 331 332 331 330 328 325 326 327 327 326 325 324 322 321 317 318 317 316 314 312 310 309 310 311 312 312 311 312 312 312 311 310 311 311 311 311 311 312 313 313 314
326 327 328 332 330 329 331 334 334 332 331 332 329 328 327 327 326 325 322 322 320 319 316 316 315 314 312 310 310 309 309 309 309 310 311 312 312 312 312 310 311 311 311 310 310 311 311 313 313
325 326 326 329 328 334 330 339 332 329 330 331 329 328 326 324 324 322 319 319 318 317 317 314 314 313 311 311 310 309 309 309 310 310 310 310 311 311 312 310 310 310 311 310 311 312 312 312 314
327 326 326 326 324 329 333 336 335 328 333 332 328 325 324 323 322 319 319 318 317 318 316 314 312 312 311 310 309 308 308 308 308 307 307 308 309 309 310 309 309 310 310 310 311 312 312 312 314
326 324 322 319 321 333 331 332 330 332 332 329 326 325 323 322 321 321 320 317 315 313 312 312 312 311 310 308 308 307 306 306 305 305 305 305 307 307 309 308 310 310 311 311 311 311 311 312 313
322 320 321 321 327 336 331 331 329 331 331 326 323 323 323 322 321 317 317 314 313 313 312 311 309 308 308 308 307 307 305 305 305 305 305 304 306 307 308 309 310 311 310 309 308 309 310 312 312
324 321 322 326 323 335 330 336 331 329 328 326 324 324 321 320 318 314 313 312 311 310 309 307 308 308 308 307 307 305 304 305 305 304 304 304 305 308 309 310 310 310 309 308 310 311 311 312 312
324 325 323 322 325 332 333 332 330 329 328 325 322 322 319 316 314 313 311 311 310 308 308 308 307 307 308 307 306 306 305 304 304 304 304 306 308 308 307 308 308 308 308 309 310 312 312 312 313
324 324 325 323 330 335 331 329 333 330 328 322 321 319 315 313 312 311 311 309 307 307 307 307 308 308 308 307 306 306 306 306 305 305 305 306 308 307 307 307 308 308 309 309 310 311 311 311 311
322 323 323 324 326 329 331 332 325 326 324 321 319 317 314 313 311 310 309 308 307 307 307 307 308 308 307 307 306 306 306 306 306 305 306 307 307 307 307 307 307 308 309 309 309 310 310 311 311
322 323 322 322 328 325 326 330 323 322 320 319 317 313 312 311 311 310 309 307 307 306 307 308 308 308 309 308 307 307 307 306 306 305 305 305 305 306 306 307 307 307 307 308 308 309 308 309 309
Wind_Speed
9 6 5 2 5 6 4 6 7 8 13 24 30 19 14 17 4 11 19 21 18 13 13 11 10 11 11 10 9 7 7 6 5 6 7 9 11 13 15 16 17 17 17 16 16 16 16 15 14
5 4 1 4 4 5 2 4 8 7 16 24 22 21 23 13 21 20 19 18 15 14 13 11 9 9 8 7 7 6 6 5 4 6 8 9 11 13 14 15 16 16 16 15 15 16 16 16 16
1 3 3 4 4 6 3 6 9 14 17 11 9 17 9 16 13 10 17 21 17 14 11 10 9 8 7 6 6 5 4 4 5 6 8 9 11 12 13 14 14 14 14 13 13 13 14 15 15
3 3 4 5 10 5 11 9 5 8 10 11 9 11 13 17 16 22 22 19 15 13 11 9 8 8 7 6 5 4 3 4 5 6 7 9 11 12 12 12 11 11 10 10 9 9 11 12 13
1 4 6 5 4 3 3 5 8 7 3 8 23 13 12 23 24 21 22 19 15 14 10 9 8 6 6 5 5 4 4 3 3 4 6 8 9 10 10 10 9 8 7 5 6 7 9 9 10
1 4 5 3 3 7 1 5 2 6 13 21 23 18 12 17 23 23 22 21 19 19 16 12 9 8 7 6 6 6 5 5 4 5 6 7 8 7 6 5 4 4 3 2 4 6 7 6 9
3 4 5 4 3 6 5 3 5 4 7 9 13 8 12 26 27 24 24 21 20 18 16 13 12 9 7 7 7 8 7 6 6 5 5 5 4 4 3 2 1 1 2 2 3 3 3 2 5
4 6 6 4 1 4 1 5 5 8 8 9 15 6 9 18 27 30 28 25 21 17 14 12 10 8 6 6 6 6 7 7 7 7 6 6 7 7 6 4 2 3 5 2 2 3 3 4 2
4 4 6 8 9 7 6 3 2 2 13 22 13 25 19 25 28 27 27 25 23 21 17 11 10 9 7 5 6 6 6 6 6 7 8 7 7 9 8 7 8 9 9 8 6 7 7 6 5
5 5 4 6 7 7 12 1 5 6 19 16 21 21 24 22 22 24 23 22 18 12 9 13 12 10 6 7 7 5 4 5 4 4 5 7 9 9 11 11 13 13 14 14 12 12 12 9 9
5 5 15 11 28 27 8 6 8 15 8 10 15 23 22 21 21 22 21 19 14 13 13 13 11 10 6 5 3 1 2 5 7 9 11 11 13 13 12 11 16 17 24 21 18 13 14 6 14
20 20 14 15 22 15 8 7 16 19 12 18 21 22 22 21 20 18 17 18 14 11 9 6 6 4 3 1 1 2 5 6 8 7 7 10 13 14 12 10 12 11 12 14 9 16 20 20 19
30 17 21 28 26 26 25 18 17 22 21 21 20 18 19 20 18 17 15 14 13 12 12 8 6 6 5 3 4 5 6 10 12 11 11 12 13 14 15 14 12 11 15 16 17 11 13 17 19
21 30 32 31 28 27 21 23 7 17 18 19 18 17 16 15 15 14 12 11 11 11 11 8 8 8 6 6 5 6 11 11 10 13 12 10 7 10 12 13 10 10 12 13 15 18 19 21 23
28 15 17 24 25 10 34 10 11 20 20 18 14 11 13 15 13 13 13 13 10 11 11 12 13 14 14 10 9 9 10 12 11 13 14 13 16 18 15 9 7 7 7 7 10 13 15 18 20
3 6 4 8 15 6 4 8 20 23 20 9 10 10 12 13 15 13 10 10 10 10 12 15 15 17 20 9 7 11 14 13 13 9 13 12 13 19 14 14 11 12 13 13 12 10 11 14 17
7 3 3 6 9 8 7 13 18 20 15 17 14 14 11 12 12 13 10 10 9 9 11 13 13 18 16 14 10 20 21 18 13 7 9 10 13 13 16 20 16 18 18 15 12 9 11 12 11
5 3 1 4 4 21 21 21 16 7 10 14 15 15 12 11 10 8 10 8 6 5 8 12 13 14 11 9 16 21 18 17 11 6 8 8 8 11 15 17 19 17 16 14 14 15 13 12 10
5 4 6 6 7 18 19 17 10 8 13 12 14 13 13 10 8 6 5 0 4 3 10 10 10 12 12 13 22 23 20 16 13 11 12 12 13 11 13 16 14 16 16 14 12 14 15 13 12
6 3 5 16 24 22 15 11 6 10 8 11 15 13 12 8 6 1 3 3 4 3 6 7 11 13 16 22 25 24 20 15 14 15 13 12 13 12 14 13 14 16 14 13 11 12 14 14 11
3 3 2 14 17 20 24 9 5 5 7 8 10 9 8 6 5 1 1 2 5 3 6 11 12 14 18 24 23 22 24 21 17 15 14 12 13 13 14 15 16 15 11 11 10 9 9 9 8
8 5 7 15 8 5 9 5 3 0 2 12 9 11 13 6 4 2 4 5 3 5 6 4 10 17 22 21 22 21 20 17 15 14 13 11 11 11 13 16 16 12 14 10 8 6 6 7 5
2 2 5 4 7 6 6 5 2 4 3 6 9 12 10 5 6 2 8 2 2 3 4 9 14 17 18 23 22 20 18 16 16 17 16 12 12 12 14 13 13 11 8 7 6 5 4 3 4
1 9 9 5 5 5 8 4 3 2 6 6 12 13 8 5 5 3 3 3 3 2 6 13 18 21 22 25 21 22 21 17 18 17 14 13 11 11 9 8 7 4 4 5 5 4 3 3 5
12 8 4 5 5 2 4 7 3 4 6 9 17 13 7 6 4 7 6 3 6 9 13 18 22 17 17 19 19 23 22 20 16 15 15 12 10 7 4 4 3 4 4 7 7 4 2 2 5
5 6 5 2 3 4 5 3 2 1 13 13 14 10 11 7 5 10 7 6 7 13 17 20 14 17 18 21 21 19 19 18 15 17 15 9 7 6 9 6 5 6 7 7 9 7 5 4 6
4 3 2 4 5 5 1 1 3 8 9 15 13 12 10 12 10 7 5 7 12 15 14 15 15 16 19 25 20 16 19 22 19 15 12 9 6 10 9 9 8 9 9 13 15 12 10 7 10
6 2 5 4 2 3 2 1 1 8 9 10 13 13 16 16 11 5 5 10 13 14 12 10 14 17 19 22 19 18 15 16 17 15 12 8 11 11 10 11 9 8 7 10 12 13 13 10 9
6 5 5 5 3 4 4 2 5 6 7 9 14 13 21 16 9 5 7 11 10 9 9 12 14 17 18 21 22 20 17 17 12 13 10 10 11 9 6 8 7 7 7 8 10 11 12 11 12
4 4 4 5 1 3 4 1 4 14 16 20 18 20 20 13 8 7 10 11 12 9 8 10 15 15 19 20 20 21 19 16 16 13 12 9 7 6 6 7 7 7 4 5 5 6 8 9 10
Wind_Direction
320 319 325 9 52 69 44 344 311 49 60 73 78 83 72 58 35 121 135 137 144 152 132 127 121 119 118 126 126 123 121 117 103 109 115 119 121 120 118 116 116 113 108 102 97 92 89 89 98
291 315 20 79 78 61 33 314 341 328 98 91 84 88 77 79 94 127 126 131 141 135 130 128 124 120 122 125 123 129 133 128 117 123 127 128 127 125 124 123 119 115 109 105 100 93 85 80 80
1 315 48 100 79 87 29 318 328 0 9 44 82 68 65 119 96 108 124 125 134 125 123 122 123 123 128 131 136 141 141 131 130 134 135 135 133 130 130 129 126 121 115 108 97 87 77 75 74
161 92 102 64 99 134 165 239 296 337 340 358 108 57 66 105 114 130 122 124 118 120 123 117 121 128 133 135 131 130 113 120 137 145 146 140 138 137 136 136 132 127 118 107 90 74 67 69 76
48 83 48 71 82 90 31 79 24 65 165 89 81 86 85 100 114 118 116 112 104 107 104 108 108 115 119 109 91 77 86 100 124 138 142 142 142 141 142 144 141 133 130 104 74 59 53 60 73
111 108 75 93 129 139 81 31 215 184 120 110 81 88 76 120 126 117 106 99 97 93 81 80 89 96 97 93 81 81 87 102 118 129 139 145 146 148 150 152 141 131 140 81 36 26 31 55 76
138 80 104 126 126 34 32 33 260 162 65 35 93 89 102 105 112 110 112 108 100 90 80 79 77 76 80 94 91 90 91 95 103 110 118 128 129 135 158 170 165 33 37 4 16 347 7 101 103
189 90 120 126 187 52 205 231 280 55 59 66 35 116 94 103 120 122 114 108 110 97 87 75 67 73 79 87 91 85 92 102 109 114 127 157 172 184 192 206 233 247 213 270 286 285 202 207 204
215 75 130 153 139 216 186 178 279 352 90 63 82 95 110 112 127 124 114 109 103 95 90 76 68 65 70 77 90 98 111 124 137 151 179 198 210 216 205 217 228 225 232 248 253 246 216 221 241
95 94 63 185 101 126 135 198 104 92 91 83 75 104 117 132 108 106 98 91 88 81 76 90 95 90 78 83 104 112 135 168 170 192 215 232 236 236 242 236 250 250 258 262 258 246 226 227 250
22 108 113 83 119 133 126 108 29 116 72 78 95 99 110 110 94 91 85 80 72 68 74 67 77 93 93 116 124 155 272 266 275 280 265 268 264 259 260 260 259 257 267 261 288 249 225 250 258
90 70 99 125 113 118 113 80 70 72 86 103 101 102 102 99 94 90 84 84 85 76 65 78 68 52 47 74 240 262 276 295 305 299 284 270 273 280 283 285 271 265 254 248 263 270 252 258 246
106 111 121 133 138 139 130 112 99 87 101 104 102 91 91 93 90 87 85 92 93 91 89 81 82 75 62 34 14 343 330 313 313 318 299 288 281 288 291 290 285 267 261 277 287 267 235 231 238
147 136 131 144 139 130 110 125 87 113 111 93 87 91 98 93 92 94 98 92 83 74 59 62 60 58 56 44 37 16 355 358 344 343 342 338 344 348 329 312 304 289 281 270 265 265 262 261 262
147 121 132 152 149 132 119 72 93 108 92 84 76 67 90 103 108 99 94 89 79 61 50 46 37 25 14 0 358 7 348 332 327 339 337 335 335 344 342 328 331 317 309 290 278 273 274 270 266
211 73 39 168 146 113 279 99 104 103 79 75 95 96 104 107 106 99 87 74 63 52 44 44 35 15 14 353 329 342 323 312 312 329 307 311 318 326 338 349 325 332 324 308 306 303 302 294 280
2 141 179 19 73 104 93 130 115 104 110 161 135 121 119 119 110 99 75 63 50 39 36 26 18 17 22 17 6 4 356 327 319 311 295 312 323 319 331 328 317 312 309 304 312 307 312 311 298
224 153 315 160 67 90 100 109 106 119 135 147 142 137 133 126 116 94 67 46 22 2 16 17 12 17 16 9 1 355 349 340 342 325 330 326 303 304 314 307 307 305 300 297 295 299 311 316 324
150 114 208 75 99 68 94 116 120 145 179 150 138 144 151 141 121 102 80 356 284 309 8 6 2 2 356 348 348 351 343 322 320 309 315 294 295 305 308 311 312 320 312 302 302 299 297 302 313
116 97 93 60 87 98 116 118 137 170 162 160 155 158 154 136 112 129 251 234 312 10 11 344 341 349 345 347 349 348 338 329 317 307 316 303 300 301 297 308 316 323 323 310 304 299 294 290 305
125 131 52 129 90 124 125 88 100 76 115 141 166 168 148 134 151 176 12 299 322 270 349 353 342 334 339 345 343 345 339 336 327 323 324 329 318 306 293 299 316 320 323 320 320 308 281 280 290
41 326 37 127 166 185 211 120 95 132 41 120 101 139 149 137 141 205 343 25 16 341 346 334 331 343 346 347 341 338 341 344 338 330 327 325 313 302 288 302 312 318 309 319 322 312 266 264 267
162 346 32 58 71 116 38 90 96 198 92 116 127 153 164 142 179 24 48 46 17 319 308 338 336 347 355 349 342 349 350 341 331 323 316 301 295 291 291 314 319 318 314 317 318 308 282 249 219
119 39 35 45 85 55 321 115 313 243 155 156 172 187 153 156 210 175 129 205 356 68 341 345 345 349 341 335 355 352 349 346 340 336 334 335 323 294 304 316 327 350 10 356 331 320 315 259 204
56 51 3 4 29 81 297 54 214 226 188 171 177 177 178 157 124 124 130 60 15 358 348 340 337 353 4 360 353 347 339 334 344 350 345 339 340 348 321 338 48 48 13 4 344 322 259 181 191
77 125 140 265 189 175 16 83 211 157 127 154 160 158 147 120 122 109 92 56 13 354 349 1 22 12 11 3 356 3 9 5 358 352 350 355 350 27 43 53 57 64 54 31 46 58 90 128 135
335 27 175 128 65 85 119 89 121 117 131 140 131 144 127 133 129 116 82 25 3 358 18 22 17 17 9 4 4 6 13 16 8 14 15 25 28 58 51 56 52 67 64 77 76 80 76 94 117
100 238 28 10 86 96 68 292 188 156 171 141 149 137 139 132 126 112 33 14 16 24 29 30 22 16 7 6 12 10 8 9 15 28 38 33 72 70 53 64 62 52 74 77 77 77 78 89 113
21 26 57 108 79 141 150 260 229 178 161 158 154 146 144 145 132 91 40 24 32 35 40 34 23 11 16 17 17 20 24 21 16 30 46 41 61 64 50 50 47 63 67 80 67 72 72 87 99
94 105 104 114 42 63 112 6 141 135 161 153 150 142 148 139 121 64 27 31 42 41 44 30 23 25 21 11 18 20 27 29 34 34 33 34 47 45 53 50 42 37 34 91 97 72 72 64 64